owner,sensor,date,latitude,longitude,vertical_datum,wind_speed,wind_to_direction,wind_speed_of_gust,qcFlag 
TCOON,ioos:station:TCOON:518:1,2016-03-01T00:00:00Z,29.5150,-94.5133,0.0,4.5,173.0,6.0,'11111222,11111222,11111222' 
TCOON,ioos:station:TCOON:518:1,2016-03-01T00:06:00Z,29.5150,-94.5133,0.0,4.4,172.0,5.9,'11111222,11111222,11111222' 
TCOON,ioos:station:TCOON:518:1,2016-03-01T00:12:00Z,29.5150,-94.5133,0.0,3.9,171.0,6.1,'11111222,11111222,11111222' 
TCOON,ioos:station:TCOON:518:1,2016-03-01T00:18:00Z,29.5150,-94.5133,0.0,3.9,169.0,5.4,'11111222,11111222,11111222' 
TCOON,ioos:station:TCOON:518:1,2016-03-01T00:24:00Z,29.5150,-94.5133,0.0,4.1,167.0,5.3,'11111222,11111222,11111222' 
TCOON,ioos:station:TCOON:518:1,2016-03-01T00:30:00Z,29.5150,-94.5133,0.0,4.1,167.0,5.3,'1111122,1111122,1111122' 
TCOON,ioos:station:TCOON:518:1,2016-03-01T00:36:00Z,29.5150,-94.5133,0.0,4.5,168.0,5.5,'11111222,11111222,11111222' 
TCOON,ioos:station:TCOON:518:1,2016-03-01T00:42:00Z,29.5150,-94.5133,0.0,3.7,172.0,5.3,'11111222,11111222,11111222' 
TCOON,ioos:station:TCOON:518:1,2016-03-01T00:48:00Z,29.5150,-94.5133,0.0,3.8,169.0,5.6,'11111222,11111222,11111222' 
TCOON,ioos:station:TCOON:518:1,2016-03-01T00:54:00Z,29.5150,-94.5133,0.0,4.0,170.0,5.7,'11111222,11111222,11111222' 
TCOON,ioos:station:TCOON:518:1,2016-03-01T01:00:00Z,29.5150,-94.5133,0.0,3.5,171.0,4.9,'11111222,11111222,11111222' 
TCOON,ioos:station:TCOON:518:1,2016-03-01T01:06:00Z,29.5150,-94.5133,0.0,4.3,172.0,6.0,'11111222,11111222,11111222' 
TCOON,ioos:station:TCOON:518:1,2016-03-01T01:12:00Z,29.5150,-94.5133,0.0,3.9,171.0,5.9,'11111222,11111222,11111222' 
TCOON,ioos:station:TCOON:518:1,2016-03-01T01:18:00Z,29.5150,-94.5133,0.0,4.2,172.0,5.6,'11111222,11111222,11111222' 
TCOON,ioos:station:TCOON:518:1,2016-03-01T01:24:00Z,29.5150,-94.5133,0.0,4.1,174.0,5.4,'11111222,11111222,11111222' 
TCOON,ioos:station:TCOON:518:1,2016-03-01T01:30:00Z,29.5150,-94.5133,0.0,4.3,172.0,5.7,'11111222,11111222,11111222' 
TCOON,ioos:station:TCOON:518:1,2016-03-01T02:18:00Z,29.5150,-94.5133,0.0,4.6,174.0,5.9,'1111122,1111122,1111122' 
TCOON,ioos:station:TCOON:518:1,2016-03-01T03:18:00Z,29.5150,-94.5133,0.0,4.7,173.0,6.5,'1111122,1111122,1111122' 
TCOON,ioos:station:TCOON:518:1,2016-03-01T04:24:00Z,29.5150,-94.5133,0.0,4.5,176.0,5.9,'1111122,1111122,1111122' 
TCOON,ioos:station:TCOON:518:1,2016-03-01T09:18:00Z,29.5150,-94.5133,0.0,2.2,199.0,3.4,'1111122,1111122,1111122' 
TCOON,ioos:station:TCOON:518:1,2016-03-01T10:18:00Z,29.5150,-94.5133,0.0,2.1,196.0,3.5,'1111122,1111122,1111122' 
TCOON,ioos:station:TCOON:518:1,2016-03-01T10:54:00Z,29.5150,-94.5133,0.0,2.2,207.0,3.4,'11111222,11111222,11111222' 
TCOON,ioos:station:TCOON:518:1,2016-03-01T11:00:00Z,29.5150,-94.5133,0.0,2.5,208.0,4.0,'11111222,11111222,11111222' 
TCOON,ioos:station:TCOON:518:1,2016-03-01T11:06:00Z,29.5150,-94.5133,0.0,2.1,206.0,3.5,'11111222,11111222,11111222' 
TCOON,ioos:station:TCOON:518:1,2016-03-01T11:12:00Z,29.5150,-94.5133,0.0,2.0,206.0,4.2,'11111222,11111222,11111222' 
TCOON,ioos:station:TCOON:518:1,2016-03-01T11:18:00Z,29.5150,-94.5133,0.0,2.0,206.0,4.2,'1111122,1111122,1111122' 
TCOON,ioos:station:TCOON:518:1,2016-03-01T11:24:00Z,29.5150,-94.5133,0.0,2.6,207.0,3.9,'11111222,11111222,11111222' 
TCOON,ioos:station:TCOON:518:1,2016-03-01T11:30:00Z,29.5150,-94.5133,0.0,2.1,217.0,3.9,'11111222,11111222,11111222' 
TCOON,ioos:station:TCOON:518:1,2016-03-01T11:36:00Z,29.5150,-94.5133,0.0,2.1,215.0,3.4,'11111222,11111222,11111222' 
TCOON,ioos:station:TCOON:518:1,2016-03-01T11:42:00Z,29.5150,-94.5133,0.0,1.9,206.0,3.8,'11111222,11111222,11111222' 
TCOON,ioos:station:TCOON:518:1,2016-03-01T11:48:00Z,29.5150,-94.5133,0.0,2.3,209.0,3.4,'11111222,11111222,11111222' 
TCOON,ioos:station:TCOON:518:1,2016-03-01T11:54:00Z,29.5150,-94.5133,0.0,2.2,201.0,3.5,'11111222,11111222,11111222' 
TCOON,ioos:station:TCOON:518:1,2016-03-01T12:00:00Z,29.5150,-94.5133,0.0,2.6,201.0,4.2,'11111222,11111222,11111222' 
TCOON,ioos:station:TCOON:518:1,2016-03-01T12:06:00Z,29.5150,-94.5133,0.0,2.3,204.0,3.8,'11111222,11111222,11111222' 
TCOON,ioos:station:TCOON:518:1,2016-03-01T12:12:00Z,29.5150,-94.5133,0.0,2.1,205.0,3.8,'11111222,11111222,11111222' 
TCOON,ioos:station:TCOON:518:1,2016-03-01T12:18:00Z,29.5150,-94.5133,0.0,2.1,205.0,3.8,'1111122,1111122,1111122' 
TCOON,ioos:station:TCOON:518:1,2016-03-01T12:24:00Z,29.5150,-94.5133,0.0,2.3,211.0,4.0,'11111222,11111222,11111222' 
TCOON,ioos:station:TCOON:518:1,2016-03-01T12:30:00Z,29.5150,-94.5133,0.0,2.5,208.0,4.0,'11111222,11111222,11111222' 
TCOON,ioos:station:TCOON:518:1,2016-03-01T12:36:00Z,29.5150,-94.5133,0.0,2.7,206.0,4.0,'11111222,11111222,11111222' 
TCOON,ioos:station:TCOON:518:1,2016-03-01T12:42:00Z,29.5150,-94.5133,0.0,2.3,209.0,3.9,'11111222,11111222,11111222' 
TCOON,ioos:station:TCOON:518:1,2016-03-01T12:48:00Z,29.5150,-94.5133,0.0,2.4,209.0,3.7,'11111222,11111222,11111222' 
TCOON,ioos:station:TCOON:518:1,2016-03-01T12:54:00Z,29.5150,-94.5133,0.0,1.8,219.0,3.7,'11111222,11111222,11111222' 
TCOON,ioos:station:TCOON:518:1,2016-03-01T13:00:00Z,29.5150,-94.5133,0.0,2.4,213.0,3.9,'11111222,11111222,11111222' 
TCOON,ioos:station:TCOON:518:1,2016-03-01T13:06:00Z,29.5150,-94.5133,0.0,2.0,219.0,3.6,'11111222,11111222,11111222' 
TCOON,ioos:station:TCOON:518:1,2016-03-01T13:12:00Z,29.5150,-94.5133,0.0,1.2,221.0,3.5,'11111222,11111222,11111222' 
TCOON,ioos:station:TCOON:518:1,2016-03-01T13:18:00Z,29.5150,-94.5133,0.0,1.2,221.0,3.5,'1111122,1111122,1111122' 
TCOON,ioos:station:TCOON:518:1,2016-03-01T13:24:00Z,29.5150,-94.5133,0.0,1.8,224.0,3.4,'11111222,11111222,11111222' 
TCOON,ioos:station:TCOON:518:1,2016-03-01T13:30:00Z,29.5150,-94.5133,0.0,2.3,216.0,3.6,'11111222,11111222,11111222' 
TCOON,ioos:station:TCOON:518:1,2016-03-01T13:36:00Z,29.5150,-94.5133,0.0,1.8,222.0,3.7,'11111222,11111222,11111222' 
TCOON,ioos:station:TCOON:518:1,2016-03-01T13:42:00Z,29.5150,-94.5133,0.0,1.6,219.0,3.8,'11111222,11111222,11111222' 
TCOON,ioos:station:TCOON:518:1,2016-03-01T13:48:00Z,29.5150,-94.5133,0.0,1.8,216.0,3.8,'11111222,11111222,11111222' 
TCOON,ioos:station:TCOON:518:1,2016-03-01T13:54:00Z,29.5150,-94.5133,0.0,2.5,216.0,4.0,'11111222,11111222,11111222' 
TCOON,ioos:station:TCOON:518:1,2016-03-01T14:00:00Z,29.5150,-94.5133,0.0,2.5,209.0,4.3,'11111222,11111222,11111222' 
TCOON,ioos:station:TCOON:518:1,2016-03-01T14:06:00Z,29.5150,-94.5133,0.0,99.0,-9999.0,99.0,'11144222,99999999,11144222' 
TCOON,ioos:station:TCOON:518:1,2016-03-01T14:12:00Z,29.5150,-94.5133,0.0,99.0,-9999.0,99.0,'11144222,99999999,11144222' 
TCOON,ioos:station:TCOON:518:1,2016-03-01T14:18:00Z,29.5150,-94.5133,0.0,99.0,-9999.0,99.0,'11144222,99999999,11144222' 
TCOON,ioos:station:TCOON:518:1,2016-03-01T14:36:00Z,29.5150,-94.5133,0.0,99.0,-9999.0,99.0,'11144222,99999999,11144222' 
TCOON,ioos:station:TCOON:518:1,2016-03-01T14:42:00Z,29.5150,-94.5133,0.0,99.0,-9999.0,99.0,'11144222,99999999,11144222' 
TCOON,ioos:station:TCOON:518:1,2016-03-01T14:48:00Z,29.5150,-94.5133,0.0,99.0,-9999.0,99.0,'11144222,99999999,11144222' 
TCOON,ioos:station:TCOON:518:1,2016-03-01T14:54:00Z,29.5150,-94.5133,0.0,99.0,-9999.0,99.0,'11144222,99999999,11144222' 
TCOON,ioos:station:TCOON:518:1,2016-03-01T15:00:00Z,29.5150,-94.5133,0.0,99.0,-9999.0,99.0,'11144222,99999999,11144222' 
TCOON,ioos:station:TCOON:518:1,2016-03-01T15:06:00Z,29.5150,-94.5133,0.0,99.0,-9999.0,99.0,'11144222,99999999,11144222' 
TCOON,ioos:station:TCOON:518:1,2016-03-01T15:12:00Z,29.5150,-94.5133,0.0,99.0,-9999.0,99.0,'11144222,99999999,11144222' 
TCOON,ioos:station:TCOON:518:1,2016-03-01T15:18:00Z,29.5150,-94.5133,0.0,99.0,-9999.0,99.0,'11144222,99999999,11144222' 
TCOON,ioos:station:TCOON:518:1,2016-03-01T15:24:00Z,29.5150,-94.5133,0.0,99.0,-9999.0,99.0,'11144222,99999999,11144222' 
TCOON,ioos:station:TCOON:518:1,2016-03-01T15:30:00Z,29.5150,-94.5133,0.0,99.0,-9999.0,99.0,'11144222,99999999,11144222' 
TCOON,ioos:station:TCOON:518:1,2016-03-01T15:36:00Z,29.5150,-94.5133,0.0,99.0,-9999.0,99.0,'11144222,99999999,11144222' 
TCOON,ioos:station:TCOON:518:1,2016-03-01T15:42:00Z,29.5150,-94.5133,0.0,4.5,208.0,6.0,'1111122,1111122,1111122' 
TCOON,ioos:station:TCOON:518:1,2016-03-01T15:48:00Z,29.5150,-94.5133,0.0,99.0,-9999.0,99.0,'11144222,99999999,11144222' 
TCOON,ioos:station:TCOON:518:1,2016-03-01T15:54:00Z,29.5150,-94.5133,0.0,99.0,-9999.0,99.0,'11144222,99999999,11144222' 
TCOON,ioos:station:TCOON:518:1,2016-03-01T16:00:00Z,29.5150,-94.5133,0.0,99.0,-9999.0,99.0,'11144222,99999999,11144222' 
TCOON,ioos:station:TCOON:518:1,2016-03-01T16:06:00Z,29.5150,-94.5133,0.0,99.0,-9999.0,99.0,'11144222,99999999,11144222' 
TCOON,ioos:station:TCOON:518:1,2016-03-01T16:12:00Z,29.5150,-94.5133,0.0,99.0,-9999.0,99.0,'11144222,99999999,11144222' 
TCOON,ioos:station:TCOON:518:1,2016-03-01T16:18:00Z,29.5150,-94.5133,0.0,3.0,205.0,5.5,'1111122,1111122,1111122' 
TCOON,ioos:station:TCOON:518:1,2016-03-01T16:24:00Z,29.5150,-94.5133,0.0,99.0,-9999.0,99.0,'11144222,99999999,11144222' 
TCOON,ioos:station:TCOON:518:1,2016-03-01T16:30:00Z,29.5150,-94.5133,0.0,99.0,-9999.0,99.0,'11144222,99999999,11144222' 
TCOON,ioos:station:TCOON:518:1,2016-03-01T16:36:00Z,29.5150,-94.5133,0.0,3.6,206.0,5.6,'11111222,11111222,11111222' 
TCOON,ioos:station:TCOON:518:1,2016-03-01T16:42:00Z,29.5150,-94.5133,0.0,3.9,211.0,6.5,'11111222,11111222,11111222' 
TCOON,ioos:station:TCOON:518:1,2016-03-01T16:48:00Z,29.5150,-94.5133,0.0,2.7,207.0,5.8,'11111222,11111222,11111222' 
TCOON,ioos:station:TCOON:518:1,2016-03-01T16:54:00Z,29.5150,-94.5133,0.0,3.0,210.0,5.5,'11111222,11111222,11111222' 
TCOON,ioos:station:TCOON:518:1,2016-03-01T17:00:00Z,29.5150,-94.5133,0.0,3.1,217.0,5.0,'11111222,11111222,11111222' 
TCOON,ioos:station:TCOON:518:1,2016-03-01T17:06:00Z,29.5150,-94.5133,0.0,3.0,228.0,4.9,'11111222,11111222,11111222' 
TCOON,ioos:station:TCOON:518:1,2016-03-01T17:12:00Z,29.5150,-94.5133,0.0,3.0,219.0,5.6,'11111222,11111222,11111222' 
TCOON,ioos:station:TCOON:518:1,2016-03-01T17:18:00Z,29.5150,-94.5133,0.0,3.0,219.0,5.6,'1111122,1111122,1111122' 
TCOON,ioos:station:TCOON:518:1,2016-03-01T17:24:00Z,29.5150,-94.5133,0.0,4.3,236.0,6.9,'11111222,11111222,11111222' 
TCOON,ioos:station:TCOON:518:1,2016-03-01T17:30:00Z,29.5150,-94.5133,0.0,3.6,240.0,6.3,'11111222,11111222,11111222' 
TCOON,ioos:station:TCOON:518:1,2016-03-01T17:36:00Z,29.5150,-94.5133,0.0,3.3,244.0,6.7,'11111222,11111222,11111222' 
TCOON,ioos:station:TCOON:518:1,2016-03-01T17:42:00Z,29.5150,-94.5133,0.0,3.7,230.0,7.4,'11111222,11111222,11111222' 
TCOON,ioos:station:TCOON:518:1,2016-03-01T17:48:00Z,29.5150,-94.5133,0.0,2.8,228.0,5.9,'11111222,11111222,11111222' 
TCOON,ioos:station:TCOON:518:1,2016-03-01T17:54:00Z,29.5150,-94.5133,0.0,3.5,223.0,6.4,'11111222,11111222,11111222' 
TCOON,ioos:station:TCOON:518:1,2016-03-01T18:00:00Z,29.5150,-94.5133,0.0,4.3,234.0,5.7,'11111222,11111222,11111222' 
TCOON,ioos:station:TCOON:518:1,2016-03-01T18:06:00Z,29.5150,-94.5133,0.0,3.2,229.0,5.0,'11111222,11111222,11111222' 
TCOON,ioos:station:TCOON:518:1,2016-03-01T18:12:00Z,29.5150,-94.5133,0.0,4.1,231.0,7.2,'11111222,11111222,11111222' 
TCOON,ioos:station:TCOON:518:1,2016-03-01T18:18:00Z,29.5150,-94.5133,0.0,4.1,231.0,7.2,'1111122,1111122,1111122' 
TCOON,ioos:station:TCOON:518:1,2016-03-01T18:24:00Z,29.5150,-94.5133,0.0,3.4,229.0,5.8,'11111222,11111222,11111222' 
TCOON,ioos:station:TCOON:518:1,2016-03-01T18:30:00Z,29.5150,-94.5133,0.0,3.6,223.0,6.2,'11111222,11111222,11111222' 
TCOON,ioos:station:TCOON:518:1,2016-03-01T18:36:00Z,29.5150,-94.5133,0.0,3.8,209.0,6.0,'11111222,11111222,11111222' 
TCOON,ioos:station:TCOON:518:1,2016-03-01T18:42:00Z,29.5150,-94.5133,0.0,3.5,216.0,6.3,'11111222,11111222,11111222' 
TCOON,ioos:station:TCOON:518:1,2016-03-01T18:48:00Z,29.5150,-94.5133,0.0,3.6,214.0,5.8,'11111222,11111222,11111222' 
TCOON,ioos:station:TCOON:518:1,2016-03-01T18:54:00Z,29.5150,-94.5133,0.0,3.2,218.0,5.3,'11111222,11111222,11111222' 
TCOON,ioos:station:TCOON:518:1,2016-03-01T19:00:00Z,29.5150,-94.5133,0.0,3.8,212.0,6.7,'11111222,11111222,11111222' 
TCOON,ioos:station:TCOON:518:1,2016-03-01T19:06:00Z,29.5150,-94.5133,0.0,4.8,205.0,7.7,'11111222,11111222,11111222' 
TCOON,ioos:station:TCOON:518:1,2016-03-01T19:12:00Z,29.5150,-94.5133,0.0,4.3,198.0,6.7,'11111222,11111222,11111222' 
TCOON,ioos:station:TCOON:518:1,2016-03-01T19:18:00Z,29.5150,-94.5133,0.0,4.5,203.0,6.4,'11111222,11111222,11111222' 
TCOON,ioos:station:TCOON:518:1,2016-03-01T19:24:00Z,29.5150,-94.5133,0.0,5.1,205.0,7.2,'11111222,11111222,11111222' 
TCOON,ioos:station:TCOON:518:1,2016-03-01T19:30:00Z,29.5150,-94.5133,0.0,4.6,204.0,6.6,'11111222,11111222,11111222' 
TCOON,ioos:station:TCOON:518:1,2016-03-01T19:36:00Z,29.5150,-94.5133,0.0,3.4,209.0,5.7,'11111222,11111222,11111222' 
TCOON,ioos:station:TCOON:518:1,2016-03-01T19:42:00Z,29.5150,-94.5133,0.0,3.4,209.0,5.7,'1111122,1111122,1111122' 
TCOON,ioos:station:TCOON:518:1,2016-03-01T19:48:00Z,29.5150,-94.5133,0.0,3.9,212.0,6.6,'11111222,11111222,11111222' 
TCOON,ioos:station:TCOON:518:1,2016-03-01T19:54:00Z,29.5150,-94.5133,0.0,3.4,209.0,6.3,'11111222,11111222,11111222' 
TCOON,ioos:station:TCOON:518:1,2016-03-01T20:00:00Z,29.5150,-94.5133,0.0,3.5,211.0,6.3,'11111222,11111222,11111222' 
TCOON,ioos:station:TCOON:518:1,2016-03-01T20:06:00Z,29.5150,-94.5133,0.0,3.7,213.0,6.0,'11111222,11111222,11111222' 
TCOON,ioos:station:TCOON:518:1,2016-03-01T20:12:00Z,29.5150,-94.5133,0.0,2.4,221.0,4.8,'11111222,11111222,11111222' 
TCOON,ioos:station:TCOON:518:1,2016-03-01T20:18:00Z,29.5150,-94.5133,0.0,2.7,223.0,5.0,'11111222,11111222,11111222' 
TCOON,ioos:station:TCOON:518:1,2016-03-01T20:24:00Z,29.5150,-94.5133,0.0,3.2,229.0,5.4,'11111222,11111222,11111222' 
TCOON,ioos:station:TCOON:518:1,2016-03-01T20:30:00Z,29.5150,-94.5133,0.0,3.2,229.0,5.4,'1111122,1111122,1111122' 
TCOON,ioos:station:TCOON:518:1,2016-03-01T20:36:00Z,29.5150,-94.5133,0.0,4.2,231.0,6.9,'11111222,11111222,11111222' 
TCOON,ioos:station:TCOON:518:1,2016-03-01T20:42:00Z,29.5150,-94.5133,0.0,3.6,230.0,5.1,'11111222,11111222,11111222' 
TCOON,ioos:station:TCOON:518:1,2016-03-01T20:48:00Z,29.5150,-94.5133,0.0,3.5,231.0,6.3,'11111222,11111222,11111222' 
TCOON,ioos:station:TCOON:518:1,2016-03-01T20:54:00Z,29.5150,-94.5133,0.0,2.8,222.0,4.6,'11111222,11111222,11111222' 
TCOON,ioos:station:TCOON:518:1,2016-03-01T21:00:00Z,29.5150,-94.5133,0.0,2.3,220.0,4.6,'11111222,11111222,11111222' 
TCOON,ioos:station:TCOON:518:1,2016-03-01T21:06:00Z,29.5150,-94.5133,0.0,2.3,231.0,4.6,'11111222,11111222,11111222' 
TCOON,ioos:station:TCOON:518:1,2016-03-01T21:12:00Z,29.5150,-94.5133,0.0,3.6,232.0,4.5,'11111222,11111222,11111222' 
TCOON,ioos:station:TCOON:518:1,2016-03-01T21:18:00Z,29.5150,-94.5133,0.0,1.7,229.0,4.5,'11111222,11111222,11111222' 
TCOON,ioos:station:TCOON:518:1,2016-03-01T21:24:00Z,29.5150,-94.5133,0.0,1.7,229.0,4.5,'1111122,1111122,1111122' 
TCOON,ioos:station:TCOON:518:1,2016-03-01T21:30:00Z,29.5150,-94.5133,0.0,2.9,228.0,4.7,'11111222,11111222,11111222' 
TCOON,ioos:station:TCOON:518:1,2016-03-01T21:36:00Z,29.5150,-94.5133,0.0,3.4,230.0,5.6,'11111222,11111222,11111222' 
TCOON,ioos:station:TCOON:518:1,2016-03-01T21:42:00Z,29.5150,-94.5133,0.0,2.6,222.0,4.8,'11111222,11111222,11111222' 
TCOON,ioos:station:TCOON:518:1,2016-03-01T21:48:00Z,29.5150,-94.5133,0.0,2.8,221.0,5.4,'11111222,11111222,11111222' 
TCOON,ioos:station:TCOON:518:1,2016-03-01T21:54:00Z,29.5150,-94.5133,0.0,3.1,218.0,5.8,'11111222,11111222,11111222' 
TCOON,ioos:station:TCOON:518:1,2016-03-01T22:00:00Z,29.5150,-94.5133,0.0,2.0,222.0,4.7,'11111222,11111222,11111222' 
TCOON,ioos:station:TCOON:518:1,2016-03-01T22:06:00Z,29.5150,-94.5133,0.0,99.0,-9999.0,99.0,'11144222,99999999,11144222' 
TCOON,ioos:station:TCOON:518:1,2016-03-01T22:12:00Z,29.5150,-94.5133,0.0,99.0,-9999.0,99.0,'11144222,99999999,11144222' 
TCOON,ioos:station:TCOON:518:1,2016-03-01T22:18:00Z,29.5150,-94.5133,0.0,99.0,-9999.0,99.0,'11144222,99999999,11144222' 
TCOON,ioos:station:TCOON:518:1,2016-03-01T22:24:00Z,29.5150,-94.5133,0.0,3.0,224.0,5.2,'1111122,1111122,1111122' 
TCOON,ioos:station:TCOON:518:1,2016-03-01T22:30:00Z,29.5150,-94.5133,0.0,2.9,212.0,5.2,'11111222,11111222,11111222' 
TCOON,ioos:station:TCOON:518:1,2016-03-01T22:36:00Z,29.5150,-94.5133,0.0,99.0,-9999.0,99.0,'11144222,99999999,11144222' 
TCOON,ioos:station:TCOON:518:1,2016-03-01T22:42:00Z,29.5150,-94.5133,0.0,99.0,-9999.0,99.0,'11144222,99999999,11144222' 
TCOON,ioos:station:TCOON:518:1,2016-03-01T22:48:00Z,29.5150,-94.5133,0.0,99.0,-9999.0,99.0,'11144222,99999999,11144222' 
TCOON,ioos:station:TCOON:518:1,2016-03-01T22:54:00Z,29.5150,-94.5133,0.0,2.8,227.0,4.6,'11111222,11111222,11111222' 
TCOON,ioos:station:TCOON:518:1,2016-03-01T23:00:00Z,29.5150,-94.5133,0.0,2.0,227.0,3.9,'11111222,11111222,11111222' 
TCOON,ioos:station:TCOON:518:1,2016-03-01T23:06:00Z,29.5150,-94.5133,0.0,2.9,241.0,4.8,'11111222,11111222,11111222' 
TCOON,ioos:station:TCOON:518:1,2016-03-01T23:12:00Z,29.5150,-94.5133,0.0,2.3,231.0,4.1,'11111222,11111222,11111222' 
TCOON,ioos:station:TCOON:518:1,2016-03-01T23:18:00Z,29.5150,-94.5133,0.0,2.3,231.0,4.1,'1111122,1111122,1111122' 
TCOON,ioos:station:TCOON:518:1,2016-03-01T23:24:00Z,29.5150,-94.5133,0.0,2.9,240.0,4.4,'11111222,11111222,11111222' 
TCOON,ioos:station:TCOON:518:1,2016-03-01T23:30:00Z,29.5150,-94.5133,0.0,3.3,239.0,4.5,'11111222,11111222,11111222' 
TCOON,ioos:station:TCOON:518:1,2016-03-01T23:36:00Z,29.5150,-94.5133,0.0,3.4,236.0,4.6,'11111222,11111222,11111222' 
TCOON,ioos:station:TCOON:518:1,2016-03-01T23:42:00Z,29.5150,-94.5133,0.0,3.2,238.0,5.7,'11111222,11111222,11111222' 
TCOON,ioos:station:TCOON:518:1,2016-03-01T23:48:00Z,29.5150,-94.5133,0.0,3.3,237.0,5.5,'11111222,11111222,11111222' 
TCOON,ioos:station:TCOON:518:1,2016-03-01T23:54:00Z,29.5150,-94.5133,0.0,3.3,240.0,5.4,'11111222,11111222,11111222' 
TCOON,ioos:station:TCOON:518:1,2016-03-02T00:00:00Z,29.5150,-94.5133,0.0,3.2,246.0,5.7,'11111222,11111222,11111222' 
TCOON,ioos:station:TCOON:518:1,2016-03-02T00:06:00Z,29.5150,-94.5133,0.0,99.0,-9999.0,99.0,'11144222,99999999,11144222' 
TCOON,ioos:station:TCOON:518:1,2016-03-02T00:12:00Z,29.5150,-94.5133,0.0,99.0,-9999.0,99.0,'11144222,99999999,11144222' 
TCOON,ioos:station:TCOON:518:1,2016-03-02T00:18:00Z,29.5150,-94.5133,0.0,3.3,241.0,4.9,'1111122,1111122,1111122' 
TCOON,ioos:station:TCOON:518:1,2016-03-02T00:24:00Z,29.5150,-94.5133,0.0,2.8,237.0,4.5,'11111222,11111222,11111222' 
TCOON,ioos:station:TCOON:518:1,2016-03-02T00:30:00Z,29.5150,-94.5133,0.0,2.0,228.0,3.7,'11111222,11111222,11111222' 
TCOON,ioos:station:TCOON:518:1,2016-03-02T00:36:00Z,29.5150,-94.5133,0.0,99.0,-9999.0,99.0,'11144222,99999999,11144222' 
TCOON,ioos:station:TCOON:518:1,2016-03-02T00:42:00Z,29.5150,-94.5133,0.0,99.0,-9999.0,99.0,'11144222,99999999,11144222' 
TCOON,ioos:station:TCOON:518:1,2016-03-02T00:48:00Z,29.5150,-94.5133,0.0,99.0,-9999.0,99.0,'11144222,99999999,11144222' 
TCOON,ioos:station:TCOON:518:1,2016-03-02T00:54:00Z,29.5150,-94.5133,0.0,1.4,225.0,2.7,'11111222,11111222,11111222' 
TCOON,ioos:station:TCOON:518:1,2016-03-02T01:00:00Z,29.5150,-94.5133,0.0,1.6,220.0,2.8,'11111222,11111222,11111222' 
TCOON,ioos:station:TCOON:518:1,2016-03-02T01:06:00Z,29.5150,-94.5133,0.0,99.0,-9999.0,99.0,'11144222,99999999,11144222' 
TCOON,ioos:station:TCOON:518:1,2016-03-02T01:12:00Z,29.5150,-94.5133,0.0,99.0,-9999.0,99.0,'11144222,99999999,11144222' 
TCOON,ioos:station:TCOON:518:1,2016-03-02T01:18:00Z,29.5150,-94.5133,0.0,99.0,-9999.0,99.0,'11144222,99999999,11144222' 
TCOON,ioos:station:TCOON:518:1,2016-03-02T01:24:00Z,29.5150,-94.5133,0.0,1.4,228.0,2.7,'1111122,1111122,1111122' 
TCOON,ioos:station:TCOON:518:1,2016-03-02T01:30:00Z,29.5150,-94.5133,0.0,2.1,237.0,2.9,'11111222,11111222,11111222' 
TCOON,ioos:station:TCOON:518:1,2016-03-02T01:36:00Z,29.5150,-94.5133,0.0,2.2,232.0,3.3,'11111222,11111222,11111222' 
TCOON,ioos:station:TCOON:518:1,2016-03-02T01:42:00Z,29.5150,-94.5133,0.0,1.6,231.0,3.1,'11111222,11111222,11111222' 
TCOON,ioos:station:TCOON:518:1,2016-03-02T01:48:00Z,29.5150,-94.5133,0.0,2.0,236.0,2.7,'11111222,11111222,11111222' 
TCOON,ioos:station:TCOON:518:1,2016-03-02T01:54:00Z,29.5150,-94.5133,0.0,99.0,-9999.0,99.0,'11144222,99999999,11144222' 
TCOON,ioos:station:TCOON:518:1,2016-03-02T02:00:00Z,29.5150,-94.5133,0.0,99.0,-9999.0,99.0,'11144222,99999999,11144222' 
TCOON,ioos:station:TCOON:518:1,2016-03-02T02:06:00Z,29.5150,-94.5133,0.0,1.9,238.0,2.4,'11111222,11111222,11111222' 
TCOON,ioos:station:TCOON:518:1,2016-03-02T02:12:00Z,29.5150,-94.5133,0.0,2.1,238.0,2.9,'11111222,11111222,11111222' 
TCOON,ioos:station:TCOON:518:1,2016-03-02T02:18:00Z,29.5150,-94.5133,0.0,2.1,238.0,2.9,'1111122,1111122,1111122' 
TCOON,ioos:station:TCOON:518:1,2016-03-02T02:24:00Z,29.5150,-94.5133,0.0,2.1,244.0,3.1,'11111222,11111222,11111222' 
TCOON,ioos:station:TCOON:518:1,2016-03-02T02:30:00Z,29.5150,-94.5133,0.0,1.9,246.0,2.8,'11111222,11111222,11111222' 
TCOON,ioos:station:TCOON:518:1,2016-03-02T02:36:00Z,29.5150,-94.5133,0.0,2.3,250.0,2.9,'11111222,11111222,11111222' 
TCOON,ioos:station:TCOON:518:1,2016-03-02T02:42:00Z,29.5150,-94.5133,0.0,2.3,253.0,2.9,'11111222,11111222,11111222' 
TCOON,ioos:station:TCOON:518:1,2016-03-02T02:48:00Z,29.5150,-94.5133,0.0,1.7,246.0,2.8,'11111222,11111222,11111222' 
TCOON,ioos:station:TCOON:518:1,2016-03-02T02:54:00Z,29.5150,-94.5133,0.0,1.9,258.0,2.6,'11111222,11111222,11111222' 
TCOON,ioos:station:TCOON:518:1,2016-03-02T03:00:00Z,29.5150,-94.5133,0.0,2.3,242.0,3.0,'11111222,11111222,11111222' 
TCOON,ioos:station:TCOON:518:1,2016-03-02T03:06:00Z,29.5150,-94.5133,0.0,2.7,242.0,3.2,'11111222,11111222,11111222' 
TCOON,ioos:station:TCOON:518:1,2016-03-02T03:12:00Z,29.5150,-94.5133,0.0,1.8,228.0,3.3,'11111222,11111222,11111222' 
TCOON,ioos:station:TCOON:518:1,2016-03-02T03:18:00Z,29.5150,-94.5133,0.0,2.2,238.0,2.6,'11111222,11111222,11111222' 
TCOON,ioos:station:TCOON:518:1,2016-03-02T03:24:00Z,29.5150,-94.5133,0.0,2.2,238.0,2.6,'1111122,1111122,1111122' 
TCOON,ioos:station:TCOON:518:1,2016-03-02T03:30:00Z,29.5150,-94.5133,0.0,2.0,244.0,2.6,'11111222,11111222,11111222' 
TCOON,ioos:station:TCOON:518:1,2016-03-02T03:36:00Z,29.5150,-94.5133,0.0,1.9,241.0,2.6,'11111222,11111222,11111222' 
TCOON,ioos:station:TCOON:518:1,2016-03-02T03:42:00Z,29.5150,-94.5133,0.0,2.0,241.0,2.6,'11111222,11111222,11111222' 
TCOON,ioos:station:TCOON:518:1,2016-03-02T03:48:00Z,29.5150,-94.5133,0.0,1.9,247.0,2.4,'11111222,11111222,11111222' 
TCOON,ioos:station:TCOON:518:1,2016-03-02T03:54:00Z,29.5150,-94.5133,0.0,2.3,241.0,2.7,'11111222,11111222,11111222' 
TCOON,ioos:station:TCOON:518:1,2016-03-02T04:00:00Z,29.5150,-94.5133,0.0,1.8,253.0,2.5,'11111222,11111222,11111222' 
TCOON,ioos:station:TCOON:518:1,2016-03-02T04:06:00Z,29.5150,-94.5133,0.0,5.6,12.0,6.9,'11111222,11111222,11111222' 
TCOON,ioos:station:TCOON:518:1,2016-03-02T04:12:00Z,29.5150,-94.5133,0.0,4.7,1.0,7.3,'11111222,11111222,11111222' 
TCOON,ioos:station:TCOON:518:1,2016-03-02T04:18:00Z,29.5150,-94.5133,0.0,4.8,7.0,5.6,'11111222,11111222,11111222' 
TCOON,ioos:station:TCOON:518:1,2016-03-02T04:24:00Z,29.5150,-94.5133,0.0,4.8,7.0,5.6,'1111122,1111122,1111122' 
TCOON,ioos:station:TCOON:518:1,2016-03-02T04:30:00Z,29.5150,-94.5133,0.0,3.0,9.0,3.9,'11111222,11111222,11111222' 
TCOON,ioos:station:TCOON:518:1,2016-03-02T04:36:00Z,29.5150,-94.5133,0.0,4.4,23.0,5.5,'11111222,11111222,11111222' 
TCOON,ioos:station:TCOON:518:1,2016-03-02T04:42:00Z,29.5150,-94.5133,0.0,4.8,34.0,6.0,'11111222,11111222,11111222' 
TCOON,ioos:station:TCOON:518:1,2016-03-02T04:48:00Z,29.5150,-94.5133,0.0,5.4,49.0,6.8,'11111222,11111222,11111222' 
TCOON,ioos:station:TCOON:518:1,2016-03-02T04:54:00Z,29.5150,-94.5133,0.0,7.0,50.0,8.3,'11111222,11111222,11111222' 
TCOON,ioos:station:TCOON:518:1,2016-03-02T05:00:00Z,29.5150,-94.5133,0.0,6.5,51.0,8.2,'11111222,11111222,11111222' 
TCOON,ioos:station:TCOON:518:1,2016-03-02T05:06:00Z,29.5150,-94.5133,0.0,6.5,48.0,7.6,'11111222,11111222,11111222' 
TCOON,ioos:station:TCOON:518:1,2016-03-02T05:12:00Z,29.5150,-94.5133,0.0,5.4,46.0,7.8,'11111222,11111222,11111222' 